Weather History for Grand Forks AFB, ND

Change the Weather History Date:

Sunday, March 10, 2013

  Actual Average Record
Temperature  
Mean Temperature 12 °F -  
Max Temperature 22 °F 24 °F 57 °F (2012)
Min Temperature 0 °F 7 °F -13 °F (2003)
Degree Days  
Heating Degree Days 52    
Moisture  
Dew Point 10 °F    
Average Humidity 77    
Maximum Humidity 86    
Minimum Humidity 64    
Precipitation  
Precipitation 0.00 in - - ()
Sea Level Pressure  
Sea Level Pressure 30.19 in    
Wind  
Wind Speed 16 mph (North)    
Max Wind Speed 20 mph    
Max Gust Speed 30 mph    
Visibility 10 miles    
Events Snow    
Averages and records for this station are not official NWS values.
T = Trace of Precipitation, MM = Missing Value Source: NWS Daily Summary

Daily Weather History Graph

Daily Weather History Graph

Search for Another Location

Airport:

Trip Planner

Search our weather history database for the weather conditions in past years. The results will help you decide how hot, cold, wet, or windy it might be!

Date:

Astronomy

Mar. 10, 2013 Rise Set
Actual Time 7:52 AM CDT 7:28 PM CDT
Civil Twilight 7:21 AM CDT 7:59 PM CDT
Nautical Twilight 6:45 AM CDT 8:35 PM CDT
Astronomical Twilight 6:08 AM CDT 9:11 PM CDT
Moon 6:55 AM CDT (3/10) 6:36 PM CDT (3/10)
Length of Visible Light 12h 37m
Length of Day
11h 35m
Waning Crescent, 2% of the Moon is Illuminated
Mar 10
Waning Crescent
Mar 11
New
Mar 19
First Quarter
Mar 27
Full
Apr 2
Last Quarter

Hourly Weather History & Observations

Time (CDT) Temp. Windchill Dew Point Humidity Pressure Visibility Wind Dir Wind Speed Gust Speed Precip Events Conditions
12:55 AM 22.5 °F 8.5 °F 17.2 °F 80% 30.08 in 10.0 mi North 17.3 mph 24.2 mph N/A   Overcast
1:55 AM 22.1 °F 8.0 °F 16.5 °F 79% 30.09 in 10.0 mi North 17.3 mph - N/A   Overcast
3:55 AM 21.2 °F 6.4 °F 15.8 °F 80% 30.10 in 10.0 mi North 18.4 mph - N/A   Overcast
4:55 AM 19.9 °F 4.3 °F 14.4 °F 79% 30.12 in 10.0 mi North 19.6 mph 29.9 mph N/A   Overcast
5:55 AM 18.5 °F 2.4 °F 13.1 °F 79% 30.16 in 10.0 mi North 19.6 mph - N/A   Overcast
6:05 AM 17.6 °F 1.7 °F 12.2 °F 79% 30.16 in 10.0 mi North 18.4 mph - N/A   Overcast
6:06 AM 17.6 °F 1.3 °F 12.2 °F 79% 30.17 in 10.0 mi North 19.6 mph - N/A Snow Light Snow
6:16 AM 17.6 °F 1.7 °F 12.2 °F 79% 30.17 in 10.0 mi North 18.4 mph - N/A   Overcast
6:28 AM 17.6 °F 2.2 °F 12.2 °F 79% 30.18 in 10.0 mi North 17.3 mph - N/A Snow Light Snow
6:32 AM 17.6 °F 2.2 °F 12.2 °F 79% 30.18 in 10.0 mi North 17.3 mph - N/A Snow Light Snow
6:55 AM 17.1 °F 2.0 °F 12.2 °F 81% 30.19 in 10.0 mi North 16.1 mph - 0.00 in Snow Light Snow
6:59 AM 17.6 °F 2.7 °F 12.2 °F 79% 30.18 in 10.0 mi North 16.1 mph - N/A   Overcast
7:01 AM 17.6 °F 3.2 °F 12.2 °F 79% 30.19 in 10.0 mi North 15.0 mph - N/A Snow Light Snow
7:47 AM 17.6 °F 3.7 °F 14.0 °F 86% 30.21 in 10.0 mi North 13.8 mph - N/A   Overcast
7:55 AM 17.6 °F 4.3 °F 13.3 °F 83% 30.22 in 10.0 mi North 12.7 mph - 0.00 in   Overcast
8:07 AM 17.6 °F 3.2 °F 14.0 °F 86% 30.22 in 10.0 mi North 15.0 mph 20.7 mph N/A Snow Light Snow
8:55 AM 17.8 °F 4.0 °F 13.5 °F 83% 30.24 in 6.0 mi North 13.8 mph - 0.00 in Snow Light Snow
9:29 AM 17.6 °F 3.2 °F 14.0 °F 86% 30.25 in 10.0 mi North 15.0 mph - N/A Snow Light Snow
9:36 AM 17.6 °F 2.2 °F 12.2 °F 79% 30.25 in 10.0 mi North 17.3 mph - N/A   Overcast
9:51 AM 17.6 °F 1.7 °F 12.2 °F 79% 30.25 in 10.0 mi North 18.4 mph - N/A   Overcast
10:55 AM 16.7 °F 2.6 °F 11.7 °F 81% 30.26 in 10.0 mi North 13.8 mph - N/A   Scattered Clouds
11:08 AM 17.6 °F 3.7 °F 12.2 °F 79% 30.27 in 10.0 mi North 13.8 mph - N/A   Partly Cloudy
11:55 AM 17.8 °F 4.0 °F 11.3 °F 76% 30.27 in 10.0 mi North 13.8 mph - N/A   Clear
12:55 PM 18.9 °F 4.3 °F 11.3 °F 72% 30.26 in 10.0 mi North 16.1 mph - N/A   Clear
1:55 PM 19.2 °F 4.7 °F 11.7 °F 72% 30.22 in 10.0 mi North 16.1 mph - N/A   Clear
2:55 PM 19.2 °F 4.3 °F 10.4 °F 69% 30.22 in 10.0 mi North 17.3 mph - N/A   Clear
3:55 PM 19.0 °F 4.5 °F 9.0 °F 65% 30.22 in 10.0 mi North 16.1 mph - N/A   Clear
4:55 PM 18.9 °F 5.9 °F 8.4 °F 64% 30.22 in 10.0 mi North 12.7 mph - N/A   Clear
5:55 PM 17.2 °F 4.5 °F 6.8 °F 64% 30.22 in 10.0 mi North 11.5 mph - N/A   Clear
6:55 PM 14.4 °F 2.4 °F 5.5 °F 68% 30.20 in 10.0 mi North 9.2 mph - N/A   Clear
7:55 PM 10.4 °F -2.4 °F 2.8 °F 72% 30.19 in 10.0 mi NNW 9.2 mph - N/A   Clear
8:55 PM 10.2 °F -1.7 °F 3.0 °F 73% 30.19 in 10.0 mi NNW 8.1 mph - N/A   Clear
9:55 PM 7.9 °F -4.6 °F 1.4 °F 75% 30.17 in 10.0 mi NNW 8.1 mph - N/A   Clear
10:55 PM 3.9 °F -9.4 °F -1.3 °F 79% 30.16 in 10.0 mi NNW 8.1 mph - N/A   Clear
11:55 PM 4.3 °F -2.9 °F -0.9 °F 79% 30.14 in 10.0 mi WNW 3.5 mph - N/A   Clear
12:55 AM 0.5 °F - -3.5 °F 83% 30.12 in 10.0 mi Calm Calm - N/A   Clear